Evergreen, AL

9:20 PM CDT on September 25, 2017 (GMT -0500)
Middleton

Weather History for KGZH - August, 2013

Change the Weather History Date:

Thursday, August 8, 2013

  Actual Average (KPRN) Record (KPRN)
Temperature  
Mean Temperature 83 °F -  
Max Temperature 95 °F 90 °F 101 °F (1956)
Min Temperature 73 °F 69 °F 62 °F (1950)
Cooling Degree Days 18    
Growing Degree Days 33 (Base 50)    
Moisture  
Dew Point 73 °F    
Average Humidity 79    
Maximum Humidity 94    
Minimum Humidity 49    
Precipitation  
Precipitation 0.00 in - - ()
Sea Level Pressure  
Sea Level Pressure 29.98 in    
Wind  
Wind Speed 2 mph (ESE)    
Max Wind Speed 13 mph    
Max Gust Speed 20 mph    
Visibility 8 miles    
Events Rain , Thunderstorm    
Averages and records for this station are not official NWS values.
T = Trace of Precipitation, MM = Missing Value Source: NWS Daily Summary

Daily Weather History Graph

Daily Weather History Graph

Search for Another Location

Airport or City:

Trip Planner

Search our weather history database for the weather conditions in past years. The results will help you decide how hot, cold, wet, or windy it might be!

Date:

Astronomy

Aug. 08, 2013 Rise Set
Actual Time 6:09 AM CDT 7:37 PM CDT
Civil Twilight 5:43 AM CDT 8:03 PM CDT
Nautical Twilight 5:12 AM CDT 8:34 PM CDT
Astronomical Twilight 4:39 AM CDT 9:07 PM CDT
Moon 7:45 AM CDT (8/8) 8:28 PM CDT (8/8)
Length of Visible Light 14h 20m
Length of Day
13h 28m
Waxing Crescent, 3% of the Moon is Illuminated
Aug 8
Waxing Crescent
Aug 14
First Quarter
Aug 20
Full
Aug 28
Last Quarter
Sep 5
New

Hourly Weather History & Observations

Time (CDT) Temp. Heat Index Dew Point Humidity Pressure Visibility Wind Dir Wind Speed Gust Speed Precip Events Conditions
12:53 AM 77.0 °F - 73.0 °F 88% 29.98 in 9.0 mi Calm Calm - N/A   Clear
1:53 AM 75.9 °F - 73.0 °F 91% 29.97 in 6.0 mi Calm Calm - N/A   Clear
2:53 AM 75.0 °F - 73.0 °F 94% 29.96 in 4.0 mi Calm Calm - N/A   Clear
3:32 AM 73.4 °F - 71.6 °F 94% 29.97 in 2.5 mi Calm Calm - N/A   Clear
3:39 AM 75.2 °F - 71.6 °F 89% 29.97 in 4.0 mi Calm Calm - N/A   Clear
3:53 AM 73.9 °F - 72.0 °F 93% 29.96 in 3.0 mi Calm Calm - N/A   Clear
4:53 AM 73.0 °F - 71.1 °F 93% 29.96 in 3.0 mi Calm Calm - N/A   Clear
5:07 AM 73.4 °F - 71.6 °F 94% 29.97 in 3.0 mi Calm Calm - N/A   Scattered Clouds
5:19 AM 73.4 °F - 71.6 °F 94% 29.97 in 2.5 mi Calm Calm - N/A   Mostly Cloudy
5:30 AM 73.4 °F - 71.6 °F 94% 29.97 in 1.8 mi Calm Calm - N/A   Scattered Clouds
5:35 AM 73.4 °F - 71.6 °F 94% 29.97 in 3.0 mi Calm Calm - N/A   Scattered Clouds
5:53 AM 73.0 °F - 71.1 °F 93% 29.98 in 4.0 mi Calm Calm - N/A   Mostly Cloudy
6:19 AM 73.4 °F - 71.6 °F 94% 30.00 in 5.0 mi Calm Calm - N/A   Overcast
6:53 AM 75.0 °F - 73.0 °F 94% 30.00 in 3.0 mi Calm Calm - N/A   Scattered Clouds
7:53 AM 79.0 °F - 73.9 °F 84% 30.00 in 9.0 mi ESE 3.5 mph - N/A   Clear
8:53 AM 82.9 °F 90.2 °F 75.0 °F 77% 30.00 in 10.0 mi ESE 5.8 mph - N/A   Clear
9:53 AM 86.0 °F 96.0 °F 75.9 °F 72% 30.01 in 10.0 mi ESE 5.8 mph - N/A   Partly Cloudy
10:32 AM 87.8 °F 97.6 °F 75.2 °F 66% 30.03 in 10.0 mi Variable 3.5 mph - N/A   Mostly Cloudy
10:42 AM 87.8 °F 97.6 °F 75.2 °F 66% 30.03 in 10.0 mi Calm Calm - N/A   Scattered Clouds
10:53 AM 88.0 °F 97.5 °F 75.0 °F 65% 30.02 in 10.0 mi NE 3.5 mph - N/A   Partly Cloudy
11:53 AM 91.0 °F 101.6 °F 75.0 °F 59% 30.01 in 10.0 mi Calm Calm - N/A   Scattered Clouds
12:53 PM 91.9 °F 101.3 °F 73.9 °F 55% 29.99 in 10.0 mi ENE 4.6 mph - N/A   Scattered Clouds
1:53 PM 93.9 °F 102.1 °F 72.0 °F 49% 29.96 in 10.0 mi NE 4.6 mph - N/A   Clear
2:53 PM 91.9 °F 98.4 °F 71.1 °F 50% 29.96 in 10.0 mi ESE 5.8 mph - N/A   Clear
3:15 PM 91.4 °F 100.1 °F 73.4 °F 55% 29.97 in 10.0 mi ESE 9.2 mph - N/A Thunderstorm Scattered Clouds
3:26 PM 89.6 °F 98.2 °F 73.4 °F 59% 29.97 in 10.0 mi East 9.2 mph 17.3 mph N/A Thunderstorm Mostly Cloudy
3:53 PM 87.1 °F 95.4 °F 73.9 °F 65% 29.96 in 10.0 mi East 3.5 mph - N/A Thunderstorm Scattered Clouds
4:30 PM 86.0 °F 93.4 °F 73.4 °F 66% 29.97 in 10.0 mi Calm Calm - N/A Thunderstorm Clear
4:53 PM 88.0 °F 96.5 °F 73.9 °F 63% 29.97 in 10.0 mi Variable 3.5 mph - N/A Thunderstorm Scattered Clouds
5:23 PM 82.4 °F 87.2 °F 71.6 °F 70% 29.99 in 10.0 mi SE 12.7 mph 19.6 mph N/A Thunderstorm Scattered Clouds
5:44 PM 82.4 °F 88.2 °F 73.4 °F 74% 29.99 in 10.0 mi SSE 10.4 mph - N/A   Partly Cloudy
5:53 PM 82.9 °F 89.4 °F 73.9 °F 74% 29.98 in 10.0 mi ESE 9.2 mph - N/A   Clear
6:53 PM 80.1 °F 83.8 °F 72.0 °F 76% 29.98 in 10.0 mi ESE 8.1 mph - 0.00 in Rain Light Rain
7:53 PM 78.1 °F - 73.0 °F 84% 29.98 in 10.0 mi East 3.5 mph - 0.00 in   Clear
8:53 PM 77.0 °F - 73.0 °F 88% 30.00 in 10.0 mi Calm Calm - N/A   Clear
9:53 PM 77.0 °F - 73.0 °F 88% 30.00 in 10.0 mi Calm Calm - N/A   Clear
10:53 PM 75.9 °F - 73.0 °F 91% 29.99 in 10.0 mi Calm Calm - N/A   Clear
11:53 PM 75.0 °F - 72.0 °F 90% 29.99 in 9.0 mi Calm Calm - N/A   Clear